STARLINK-34312 (64711 NORAD) Tracking and Keplerian Element Data

This shows tracking and keplerian element data for the satellite.

Feedback or suggestion? Click here.




ElementValue
Catalog64711
NameSTARLINK-34312
Epoch Orbit2774
Epoch Day354.19488743
Epoch Year2025
RAAN154.8671
Inclination70.0011
Eccentricity0.000214
Argument of Perigee292.8221
Mean Anonmoly67.2711
Mean Motion14.98335397
Decay Rate3.345E-05
L11 64711U 25142R 25354.19488743 .00003345 00000+0 28800-3 0 9991
L22 64711 70.0011 154.8671 0002140 292.8221 67.2711 14.98335397 27741



Live tracking and technical data element details for STARLINK-34312 (NORAD 64711). STARLINK-34312 can be tracked NOW for your location showing map with azimuth and elevation plus other details from your city location.







IsCatalogInMostPopularTable: catalog: 64711, numindb: 8
Update: records affected: 1



GetName: 64711 STARLINK-34312

Hit Count: updated at: Sat, 11 Apr 2026 21:32:06 GMT